Location: Bauerbach
(50.4985°N, 10.3912°E)
Time: 08:16:03
(UTC+00:00)

Cosmos 1269 Rocket - Pass Details

Date: 13 January 2026
Orbit: 769 x 775 km, 74.1° (Epoch: 15 February)

Event Time Altitude Azimuth Distance (km) Brightness Sun altitude
Rises 05:46:29 0° 199° (SSW) 3,238 7.2 -13.4°
Reaches altitude 10° 05:48:51 10° 198° (SSW) 2,316 6.5 -13.1°
Maximum altitude 05:54:06 82° 113° (ESE) 789 4.1 -12.3°
Drops below altitude 10° 05:59:25 10° 26° (NNE) 2,334 6.6 -11.5°
Sets 06:01:49 0° 25° (NNE) 3,266 7.3 -11.1°
